Tracking 19570 objects as of 22-Feb-2019
HD Live streaming from Space Station
objects crossing your sky now

THORAD DELTA 1 DEB

Track THORAD DELTA 1 DEB now!
10-day predictions


NORAD ID: 8305
Int'l Code: 1974-089BN
Perigee: 1,461.2 km
Apogee: 1,609.0 km
Inclination: 101.5 °
Period: 116.6 minutes
Semi major axis: 7906 km
RCS: 0.1471 m2 (medium)
Launch date: November 15, 1974
Source: United States (US)
Launch site: AIR FORCE WESTERN TEST RANGE (AFWTR)

Note: This is SATELLITE DEBRIS
aabbcc
Your satellite tracking list
Your tracking list is empty




NASA's NSSDC Master Catalog

Two Line Element Set (TLE):
1  8305U 74089BN  19053.52774464 -.00000031  00000-0  86058-4 0  9997
2  8305 101.4884  22.6074 0093481 233.0668 248.8270 12.34974316995495
Source of the keplerian elements: AFSPC